Powrót do katalogu

CZ-6A DEB

AktywnyPO
NORAD 55537·DEBRIS·🇨🇳 China

Wystrzelony Nov 11, 2022 z Taiyuan Satellite Launch Center

Loading…

Następne Przeloty (najbliższe 24 godziny)

TLE

ŚwieżeSource: Space-Track

Epoka: Sep 13, 2026, 15:45 UTC

1 55537U 22151YK  26256.65655442  .00008545  00000-0  12581-2 0  9995
2 55537  98.6211 327.3879 0063821   9.3950 350.8434 14.74266432197844

Śledź CZ-6A DEB w czasie rzeczywistym z AllMySat

Download on the App Store